• în Republica Moldova
  • Lista ţărilor
  • Pe 7 zile
  • Temperatura apei
  • Hartă satelitară
  • Meteo pe hartă
  • Widget-uri
  • user-avatar
    Intrare

    Meteo pe oră la Berat

    Astăzi, 27 Iunie, Marţi

    Timp Temperatura Precipitaţii Vânt Presiune Umiditate
    00:00 +20°C° 0 mm 0 m/s 742 mmHg 89%
    01:00 +19°C° 0 mm 0 m/s 742 mmHg 89%
    02:00 +19°C° 0 mm 0 m/s 742 mmHg 90%
    03:00 +19°C° 0 mm 0 m/s 742 mmHg 90%
    04:00 +18°C° 0 mm 0 m/s 742 mmHg 90%
    05:00 +21°C° 0 mm 0 m/s 742 mmHg 81%
    06:00 +24°C° 0 mm 0 m/s 742 mmHg 71%
    07:00 +26°C° 0 mm 0 m/s 743 mmHg 62%
    08:00 +30°C° 0 mm 1 m/s 743 mmHg 54%
    09:00 +32°C° 0 mm 1 m/s 743 mmHg 46%
    10:00 +33°C° 0 mm 1 m/s 743 mmHg 37%
    11:00 +35°C° 0 mm 2 m/s 743 mmHg 35%
    12:00 +35°C° 0 mm 3 m/s 742 mmHg 32%
    13:00 +36°C° 0 mm 3 m/s 742 mmHg 30%
    14:00 +36°C° 0 mm 3 m/s 742 mmHg 32%
    15:00 +35°C° 0 mm 3 m/s 742 mmHg 33%
    16:00 +35°C° 0 mm 3 m/s 742 mmHg 34%
    17:00 +31°C° 0 mm 2 m/s 742 mmHg 45%
    18:00 +29°C° 0 mm 2 m/s 741 mmHg 55%
    19:00 +26°C° 0 mm 1 m/s 741 mmHg 66%
    20:00 +25°C° 0 mm 1 m/s 741 mmHg 69%
    21:00 +24°C° 0 mm 1 m/s 742 mmHg 71%
    22:00 +23°C° 0 mm 1 m/s 742 mmHg 74%
    23:00 +23°C° 0 mm 2 m/s 742 mmHg 74%

    Mâine, 28 Iunie, Miercuri

    Timp Temperatura Precipitaţii Vânt Presiune Umiditate
    00:00 +23°C° 0 mm 2 m/s 742 mmHg 73%
    01:00 +23°C° 0 mm 2 m/s 742 mmHg 73%
    02:00 +23°C° 0 mm 2 m/s 742 mmHg 73%
    03:00 +23°C° 0 mm 2 m/s 741 mmHg 73%
    04:00 +22°C° 0 mm 3 m/s 741 mmHg 73%
    05:00 +25°C° 0 mm 3 m/s 742 mmHg 66%
    06:00 +27°C° 0 mm 2 m/s 742 mmHg 58%
    07:00 +29°C° 0 mm 2 m/s 742 mmHg 51%
    08:00 +31°C° 0 mm 3 m/s 742 mmHg 45%
    09:00 +33°C° 0 mm 3 m/s 742 mmHg 39%
    10:00 +35°C° 0 mm 3 m/s 742 mmHg 33%
    11:00 +36°C° 0 mm 4 m/s 742 mmHg 32%
    12:00 +36°C° 0 mm 4 m/s 742 mmHg 31%
    13:00 +36°C° 0 mm 4 m/s 742 mmHg 30%
    14:00 +36°C° 0 mm 4 m/s 741 mmHg 32%
    15:00 +36°C° 0 mm 4 m/s 741 mmHg 33%
    16:00 +35°C° 0 mm 3 m/s 741 mmHg 35%
    17:00 +33°C° 0 mm 3 m/s 741 mmHg 44%
    18:00 +29°C° 0 mm 2 m/s 741 mmHg 54%
    19:00 +27°C° 0 mm 2 m/s 741 mmHg 63%
    20:00 +26°C° 0 mm 2 m/s 741 mmHg 63%
    21:00 +26°C° 0 mm 2 m/s 742 mmHg 63%
    22:00 +25°C° 0 mm 2 m/s 742 mmHg 63%
    23:00 +25°C° 0 mm 3 m/s 742 mmHg 62%

    Poimâine, 29 Iunie, Joi

    Timp Temperatura Precipitaţii Vânt Presiune Umiditate
    00:00 +25°C° 0 mm 3 m/s 742 mmHg 62%
    01:00 +25°C° 0 mm 3 m/s 741 mmHg 61%
    02:00 +25°C° 0 mm 3 m/s 741 mmHg 60%
    03:00 +24°C° 0 mm 3 m/s 741 mmHg 59%
    04:00 +24°C° 0 mm 3 m/s 741 mmHg 58%
    05:00 +26°C° 0,1 mm 3 m/s 741 mmHg 53%
    06:00 +29°C° 0,1 mm 3 m/s 742 mmHg 48%
    07:00 +31°C° 0,1 mm 3 m/s 742 mmHg 43%
    08:00 +34°C° 0 mm 4 m/s 742 mmHg 38%
    09:00 +36°C° 0 mm 5 m/s 742 mmHg 32%
    10:00 +39°C° 0 mm 5 m/s 742 mmHg 27%
    11:00 +39°C° 0 mm 6 m/s 742 mmHg 26%
    12:00 +40°C° 0 mm 6 m/s 742 mmHg 25%
    13:00 +40°C° 0 mm 6 m/s 742 mmHg 24%
    14:00 +39°C° 0 mm 6 m/s 741 mmHg 25%
    15:00 +39°C° 0 mm 6 m/s 741 mmHg 27%
    16:00 +37°C° 0 mm 5 m/s 741 mmHg 28%
    17:00 +34°C° 0 mm 4 m/s 741 mmHg 38%
    18:00 +32°C° 0 mm 4 m/s 742 mmHg 47%
    19:00 +28°C° 0 mm 3 m/s 742 mmHg 57%
    20:00 +27°C° 0 mm 3 m/s 742 mmHg 57%
    21:00 +26°C° 0 mm 3 m/s 743 mmHg 58%
    22:00 +26°C° 0 mm 3 m/s 743 mmHg 59%
    23:00 +25°C° 0 mm 3 m/s 743 mmHg 58%

    30 Iunie, Vineri

    Timp Temperatura Precipitaţii Vânt Presiune Umiditate
    00:00 +25°C° 0 mm 3 m/s 743 mmHg 57%
    01:00 +25°C° 0 mm 3 m/s 743 mmHg 56%
    02:00 +25°C° 0 mm 3 m/s 743 mmHg 55%
    03:00 +24°C° 0 mm 2 m/s 743 mmHg 53%
    04:00 +24°C° 0 mm 2 m/s 743 mmHg 52%
    05:00 +26°C° 0 mm 2 m/s 744 mmHg 47%
    06:00 +29°C° 0 mm 1 m/s 744 mmHg 43%
    07:00 +31°C° 0 mm 1 m/s 744 mmHg 39%
    08:00 +33°C° 0 mm 1 m/s 744 mmHg 35%
    09:00 +36°C° 0 mm 1 m/s 744 mmHg 31%
    10:00 +39°C° 0 mm 1 m/s 744 mmHg 27%
    11:00 +39°C° 0 mm 2 m/s 744 mmHg 26%
    12:00 +40°C° 0 mm 2 m/s 744 mmHg 24%
    13:00 +42°C° 0 mm 3 m/s 744 mmHg 23%
    14:00 +40°C° 0 mm 3 m/s 743 mmHg 25%
    15:00 +40°C° 0 mm 3 m/s 743 mmHg 27%
    16:00 +39°C° 0 mm 3 m/s 743 mmHg 28%
    17:00 +36°C° 0 mm 2 m/s 743 mmHg 39%
    18:00 +32°C° 0 mm 2 m/s 743 mmHg 49%
    19:00 +29°C° 0 mm 1 m/s 742 mmHg 60%
    20:00 +28°C° 0 mm 1 m/s 743 mmHg 59%
    21:00 +28°C° 0 mm 2 m/s 743 mmHg 58%
    22:00 +27°C° 0 mm 2 m/s 743 mmHg 58%
    23:00 +27°C° 0 mm 2 m/s 743 mmHg 56%

    1 Iulie, Sâmbătă

    Timp Temperatura Precipitaţii Vânt Presiune Umiditate
    00:00 +27°C° 0 mm 2 m/s 743 mmHg 55%
    01:00 +26°C° 0 mm 2 m/s 742 mmHg 53%
    02:00 +26°C° 0 mm 2 m/s 742 mmHg 50%
    03:00 +26°C° 0 mm 3 m/s 742 mmHg 47%
    04:00 +26°C° 0 mm 3 m/s 742 mmHg 45%
    05:00 +29°C° 0 mm 2 m/s 742 mmHg 40%
    06:00 +31°C° 0 mm 2 m/s 742 mmHg 36%
    07:00 +34°C° 0 mm 1 m/s 742 mmHg 32%
    08:00 +36°C° 0 mm 2 m/s 742 mmHg 28%
    09:00 +38°C° 0 mm 2 m/s 743 mmHg 24%
    10:00 +40°C° 0 mm 2 m/s 743 mmHg 21%
    11:00 +40°C° 0 mm 2 m/s 742 mmHg 21%
    12:00 +40°C° 0 mm 3 m/s 742 mmHg 21%
    13:00 +42°C° 0 mm 3 m/s 742 mmHg 21%
    14:00 +40°C° 0 mm 3 m/s 741 mmHg 23%
    15:00 +40°C° 0 mm 3 m/s 741 mmHg 25%
    16:00 +39°C° 0 mm 3 m/s 741 mmHg 27%
    17:00 +36°C° 0 mm 2 m/s 741 mmHg 39%
    18:00 +31°C° 0 mm 2 m/s 741 mmHg 51%
    19:00 +28°C° 0 mm 1 m/s 740 mmHg 62%
    20:00 +27°C° 0 mm 1 m/s 740 mmHg 68%
    21:00 +26°C° 0 mm 1 m/s 740 mmHg 73%
    22:00 +22°C° 0 mm 0 m/s 740 mmHg 78%
    23:00 +24°C° 0 mm 1 m/s 740 mmHg 79%

    2 Iulie, Duminică

    Timp Temperatura Precipitaţii Vânt Presiune Umiditate
    00:00 +24°C° 0 mm 1 m/s 740 mmHg 80%
    01:00 +23°C° 0 mm 1 m/s 740 mmHg 81%
    02:00 +23°C° 0 mm 1 m/s 740 mmHg 82%
    03:00 +23°C° 0 mm 1 m/s 739 mmHg 84%
    04:00 +22°C° 0 mm 1 m/s 739 mmHg 85%
    05:00 +25°C° 0 mm 2 m/s 739 mmHg 76%
    06:00 +27°C° 0 mm 2 m/s 739 mmHg 66%
    07:00 +30°C° 0 mm 2 m/s 739 mmHg 57%
    08:00 +31°C° 0 mm 3 m/s 739 mmHg 52%
    09:00 +33°C° 0 mm 3 m/s 739 mmHg 48%
    10:00 +34°C° 0 mm 4 m/s 739 mmHg 44%
    11:00 +34°C° 0 mm 4 m/s 739 mmHg 43%
    12:00 +35°C° 0 mm 5 m/s 738 mmHg 42%
    13:00 +35°C° 0 mm 6 m/s 738 mmHg 41%
    14:00 +34°C° 0,2 mm 6 m/s 738 mmHg 42%
    15:00 +33°C° 0,2 mm 6 m/s 738 mmHg 42%
    16:00 +32°C° 0,2 mm 6 m/s 738 mmHg 42%
    17:00 +28°C° 0 mm 5 m/s 738 mmHg 49%
    18:00 +26°C° 0 mm 4 m/s 738 mmHg 55%
    19:00 +24°C° 0 mm 3 m/s 738 mmHg 62%
    20:00 +22°C° 0,1 mm 3 m/s 738 mmHg 69%
    21:00 +20°C° 0,1 mm 2 m/s 739 mmHg 75%
    22:00 +19°C° 0,1 mm 2 m/s 739 mmHg 82%
    23:00 +19°C° 0,1 mm 2 m/s 739 mmHg 84%
    Arată mai mult